| time (UTC) | temp C | wind direction | speed KPH | gust KPH | rain 1hr cm | rain 24hr cm | rain mn cm | humidity % | barometer mb |
| 20260510170912 | 10 | 38 | 3.2 | 9.7 | 0.00 | 1.14 | 0.03 | 54 | 1014.6 |
| 20260510170352 | 11 | 88 | 3.2 | 12.9 | 0.00 | 1.14 | 0.03 | 58 | 1014.6 |
| 20260510165849 | 11 | 355 | 4.8 | 14.5 | 0.00 | 1.14 | 0.03 | 53 | 1014.5 |
| 20260510165353 | 10 | 255 | 9.7 | 14.5 | 0.00 | 1.14 | 0.03 | 53 | 1014.4 |
| 20260510164847 | 10 | 236 | 6.4 | 14.5 | 0.00 | 1.14 | 0.03 | 55 | 1014.5 |
| 20260510164349 | 10 | 188 | 4.8 | 14.5 | 0.00 | 1.14 | 0.03 | 55 | 1014.4 |
| 20260510163909 | 10 | 340 | 4.8 | 14.5 | 0.00 | 1.14 | 0.03 | 54 | 1014.5 |
| 20260510163348 | 10 | 256 | 3.2 | 16.1 | 0.00 | 1.14 | 0.03 | 55 | 1014.4 |
| 20260510162852 | 11 | 360 | 8.0 | 16.1 | 0.00 | 1.14 | 0.03 | 60 | 1014.4 |
| 20260510162358 | 10 | 306 | 4.8 | 12.9 | 0.03 | 1.14 | 0.03 | 56 | 1014.5 |
| 20260510161838 | 10 | 349 | 4.8 | 16.1 | 0.03 | 1.14 | 0.03 | 56 | 1014.4 |
| 20260510161333 | 10 | 38 | 6.4 | 11.3 | 0.03 | 1.14 | 0.03 | 53 | 1014.3 |
| 20260510160850 | 10 | 82 | 3.2 | 17.7 | 0.03 | 1.14 | 0.03 | 53 | 1014.4 |
| 20260510160337 | 10 | 254 | 8.0 | 17.7 | 0.03 | 1.14 | 0.03 | 52 | 1014.4 |
| 20260510155841 | 11 | 348 | 3.2 | 14.5 | 0.03 | 1.14 | 0.03 | 55 | 1014.4 |
| 20260510155341 | 10 | 205 | 4.8 | 14.5 | 0.03 | 1.14 | 0.03 | 57 | 1014.3 |
| 20260510154853 | 10 | 250 | 6.4 | 14.5 | 0.03 | 1.14 | 0.03 | 57 | 1014.3 |
| 20260510154338 | 10 | 164 | 4.8 | 11.3 | 0.03 | 1.14 | 0.03 | 53 | 1014.3 |
| 20260510153904 | 11 | 71 | 3.2 | 11.3 | 0.03 | 1.14 | 0.03 | 59 | 1014.2 |
| 20260510153352 | 11 | 217 | 4.8 | 8.0 | 0.03 | 1.14 | 0.03 | 60 | 1014.3 |
| 20260510152910 | 10 | 318 | 3.2 | 14.5 | 0.03 | 1.14 | 0.03 | 58 | 1014.3 |
| 20260510152351 | 9 | 234 | 4.8 | 14.5 | 0.00 | 1.12 | 0.00 | 56 | 1014.3 |
| 20260510151907 | 9 | 222 | 6.4 | 12.9 | 0.00 | 1.12 | 0.00 | 55 | 1014.1 |
| 20260510151403 | 10 | 196 | 6.4 | 12.9 | 0.00 | 1.12 | 0.00 | 56 | 1014.1 |
| 20260510150840 | 10 | 286 | 3.2 | 14.5 | 0.00 | 1.12 | 0.00 | 64 | 1014.1 |
| 20260510150408 | 9 | 22 | 6.4 | 14.5 | 0.00 | 1.12 | 0.00 | 62 | 1014.1 |
| 20260510145859 | 9 | 59 | 4.8 | 19.3 | 0.00 | 1.12 | 0.00 | 61 | 1013.9 |
| 20260510145416 | 9 | 220 | 8.0 | 19.3 | 0.00 | 1.12 | 0.00 | 62 | 1013.8 |
| 20260510144845 | 9 | 240 | 3.2 | 12.9 | 0.00 | 1.12 | 0.00 | 60 | 1013.8 |
| 20260510144339 | 9 | 276 | 4.8 | 12.9 | 0.00 | 1.12 | 0.00 | 64 | 1013.6 |
| 20260510143854 | 9 | 169 | 4.8 | 9.7 | 0.00 | 1.12 | 0.00 | 59 | 1013.6 |
| 20260510143351 | 9 | 150 | 1.6 | 9.7 | 0.00 | 1.12 | 0.00 | 67 | 1013.4 |
| 20260510142851 | 10 | 285 | 4.8 | 11.3 | 0.00 | 1.12 | 0.00 | 64 | 1013.4 |
| 20260510142349 | 9 | 350 | 4.8 | 12.9 | 0.00 | 1.12 | 0.00 | 63 | 1013.3 |
| 20260510141847 | 9 | 236 | 3.2 | 12.9 | 0.00 | 1.12 | 0.00 | 60 | 1013.2 |
| 20260510141338 | 9 | 310 | 3.2 | 12.9 | 0.00 | 1.12 | 0.00 | 62 | 1013.3 |
| 20260510140838 | 9 | 202 | 3.2 | 11.3 | 0.00 | 1.12 | 0.00 | 68 | 1013.2 |
| 20260510140334 | 9 | 185 | 4.8 | 9.7 | 0.00 | 1.12 | 0.00 | 71 | 1013.1 |
| 20260510135913 | 9 | 332 | 3.2 | 9.7 | 0.00 | 1.12 | 0.00 | 66 | 1013.1 |
| 20260510135343 | 8 | 243 | 3.2 | 11.3 | 0.00 | 1.12 | 0.00 | 62 | 1013.0 |
| 20260510134836 | 8 | 254 | 4.8 | 11.3 | 0.00 | 1.12 | 0.00 | 65 | 1012.9 |
| 20260510134339 | 8 | 313 | 3.2 | 6.4 | 0.00 | 1.12 | 0.00 | 66 | 1012.9 |
| 20260510133853 | 8 | 204 | 3.2 | 8.0 | 0.00 | 1.12 | 0.00 | 63 | 1012.7 |
| 20260510133354 | 8 | 178 | 3.2 | 11.3 | 0.00 | 1.12 | 0.00 | 62 | 1012.7 |
| 20260510132840 | 8 | 243 | 3.2 | 11.3 | 0.00 | 1.12 | 0.00 | 63 | 1012.7 |
| 20260510132358 | 8 | 288 | 3.2 | 12.9 | 0.00 | 1.12 | 0.00 | 64 | 1012.7 |
| 20260510131839 | 8 | 263 | 3.2 | 12.9 | 0.00 | 1.12 | 0.00 | 66 | 1012.7 |
| 20260510131356 | 8 | 182 | 3.2 | 11.3 | 0.00 | 1.12 | 0.00 | 75 | 1012.6 |
| 20260510130845 | 8 | 43 | 3.2 | 16.1 | 0.00 | 1.12 | 0.00 | 75 | 1012.5 |
| 20260510130332 | 8 | 238 | 6.4 | 16.1 | 0.00 | 1.12 | 0.00 | 71 | 1012.4 |
| 20260510125837 | 9 | 276 | 4.8 | 12.9 | 0.00 | 1.12 | 0.00 | 71 | 1012.3 |
| 20260510125352 | 8 | 49 | 1.6 | 6.4 | 0.00 | 1.12 | 0.00 | 75 | 1012.3 |
| 20260510124906 | 8 | 292 | 3.2 | 8.0 | 0.00 | 1.12 | 0.00 | 76 | 1012.2 |
| 20260510124359 | 8 | 277 | 1.6 | 8.0 | 0.00 | 1.12 | 0.00 | 78 | 1012.1 |
| 20260510123911 | 7 | 217 | 3.2 | 8.0 | 0.00 | 1.12 | 0.00 | 80 | 1012.1 |
| 20260510123346 | 7 | 40 | 1.6 | 4.8 | 0.00 | 1.12 | 0.00 | 80 | 1012.0 |
| 20260510122842 | 7 | 229 | 1.6 | 4.8 | 0.00 | 1.12 | 0.00 | 79 | 1011.9 |
| 20260510122340 | 6 | 229 | 0.0 | 4.8 | 0.00 | 1.12 | 0.00 | 80 | 1012.0 |
| 20260510121834 | 6 | 294 | 0.0 | 3.2 | 0.00 | 1.12 | 0.00 | 81 | 1012.0 |
| 20260510121350 | 6 | 294 | 0.0 | 3.2 | 0.00 | 1.12 | 0.00 | 79 | 1012.0 |
| 20260510120902 | 6 | 294 | 0.0 | 1.6 | 0.00 | 1.12 | 0.00 | 79 | 1012.0 |
| 20260510120337 | 6 | 294 | 0.0 | 3.2 | 0.00 | 1.12 | 0.00 | 80 | 1011.9 |
| 20260510115845 | 6 | 294 | 0.0 | 3.2 | 0.00 | 1.12 | 0.00 | 80 | 1011.8 |
| 20260510115339 | 6 | 236 | 0.0 | 4.8 | 0.00 | 1.12 | 0.00 | 79 | 1011.9 |
| 20260510114833 | 6 | 254 | 0.0 | 4.8 | 0.00 | 1.12 | 0.00 | 80 | 1011.9 |
| 20260510114347 | 6 | 254 | 0.0 | 1.6 | 0.00 | 1.12 | 0.00 | 80 | 1011.8 |
| 20260510113842 | 6 | 254 | 0.0 | 1.6 | 0.00 | 1.12 | 0.00 | 81 | 1011.8 |
| 20260510113335 | 6 | 254 | 0.0 | 1.6 | 0.00 | 1.12 | 0.00 | 82 | 1011.7 |
| 20260510112850 | 6 | 254 | 0.0 | 1.6 | 0.00 | 1.12 | 0.00 | 83 | 1011.8 |
| 20260510112343 | 6 | 254 | 0.0 | 3.2 | 0.00 | 1.12 | 0.00 | 81 | 1011.5 |
| 20260510111839 | 6 | 254 | 0.0 | 3.2 | 0.00 | 1.12 | 0.00 | 83 | 1011.3 |
| 20260510111333 | 6 | 285 | 0.0 | 3.2 | 0.00 | 1.12 | 0.00 | 83 | 1011.3 |
| 20260510110848 | 6 | 285 | 0.0 | 3.2 | 0.00 | 1.12 | 0.00 | 85 | 1011.3 |
| 20260510110343 | 5 | 285 | 0.0 | 1.6 | 0.00 | 1.12 | 0.00 | 87 | 1011.2 |
| 20260510105850 | 5 | 317 | 0.0 | 1.6 | 0.00 | 1.12 | 0.00 | 88 | 1011.0 |
| 20260510105344 | 5 | 317 | 0.0 | 3.2 | 0.00 | 1.12 | 0.00 | 88 | 1010.9 |
| 20260510104838 | 5 | 317 | 0.0 | 3.2 | 0.00 | 1.12 | 0.00 | 89 | 1010.7 |
| 20260510104352 | 5 | 317 | 0.0 | 4.8 | 0.00 | 1.12 | 0.00 | 90 | 1010.7 |
| 20260510103845 | 5 | 317 | 0.0 | 4.8 | 0.00 | 1.12 | 0.00 | 89 | 1010.3 |
| 20260510103344 | 5 | 298 | 0.0 | 0.0 | 0.00 | 1.12 | 0.00 | 88 | 1010.1 |
| 20260510102840 | 5 | 299 | 0.0 | 0.0 | 0.00 | 1.12 | 0.00 | 88 | 1010.1 |
| 20260510102333 | 5 | 298 | 0.0 | 0.0 | 0.00 | 1.12 | 0.00 | 88 | 1010.0 |
| 20260510101846 | 5 | 298 | 0.0 | 0.0 | 0.00 | 1.12 | 0.00 | 87 | 1010.0 |
| 20260510101341 | 5 | 298 | 0.0 | 0.0 | 0.00 | 1.12 | 0.00 | 88 | 1009.7 |
| 20260510100835 | 5 | 299 | 0.0 | 3.2 | 0.00 | 1.12 | 0.00 | 89 | 1009.8 |
| 20260510100330 | 5 | 298 | 1.6 | 3.2 | 0.00 | 1.12 | 0.00 | 88 | 1009.6 |
| 20260510095838 | 5 | 299 | 1.6 | 3.2 | 0.00 | 1.12 | 0.00 | 88 | 1009.4 |
| 20260510095333 | 5 | 299 | 0.0 | 3.2 | 0.00 | 1.12 | 0.00 | 87 | 1009.4 |
| 20260510094848 | 5 | 299 | 0.0 | 3.2 | 0.00 | 1.12 | 0.00 | 86 | 1009.2 |
| 20260510094343 | 5 | 299 | 0.0 | 1.6 | 0.00 | 1.12 | 0.00 | 87 | 1009.2 |
| 20260510093858 | 5 | 299 | 0.0 | 4.8 | 0.00 | 1.12 | 0.00 | 88 | 1009.4 |
| 20260510093352 | 6 | 299 | 0.0 | 4.8 | 0.00 | 1.12 | 0.00 | 88 | 1009.2 |
| 20260510092846 | 6 | 290 | 1.6 | 3.2 | 0.00 | 1.12 | 0.00 | 88 | 1009.3 |
| 20260510092342 | 6 | 288 | 1.6 | 3.2 | 0.00 | 1.12 | 0.00 | 88 | 1009.0 |
| 20260510091836 | 6 | 333 | 0.0 | 8.0 | 0.00 | 1.12 | 0.00 | 87 | 1008.7 |
| 20260510091351 | 6 | 329 | 3.2 | 8.0 | 0.00 | 1.12 | 0.00 | 89 | 1008.8 |
| 20260510090845 | 6 | 331 | 1.6 | 6.4 | 0.00 | 1.12 | 0.00 | 91 | 1009.4 |
| 20260510090340 | 7 | 320 | 1.6 | 6.4 | 0.00 | 1.12 | 0.00 | 92 | 1009.3 |
| 20260510085833 | 7 | 355 | 0.0 | 4.8 | 0.00 | 1.12 | 0.00 | 92 | 1008.9 |
| 20260510085348 | 7 | 355 | 1.6 | 4.8 | 0.00 | 1.12 | 0.00 | 91 | 1008.7 |
| 20260510084843 | 7 | 355 | 0.0 | 4.8 | 0.00 | 1.12 | 0.00 | 91 | 1008.5 |
| 20260510084337 | 7 | 355 | 1.6 | 9.7 | 0.00 | 1.12 | 0.00 | 91 | 1008.6 |
| 20260510083852 | 7 | 5 | 1.6 | 12.9 | 0.00 | 1.12 | 0.00 | 92 | 1008.6 |
| 20260510080340 | 8 | 302 | 0.0 | 6.4 | 0.00 | 1.12 | 0.00 | 96 | 1008.0 |
| 20260510075907 | 8 | 299 | 1.6 | 6.4 | 0.00 | 1.12 | 0.00 | 96 | 1008.0 |
| 20260510075349 | 8 | 292 | 0.0 | 8.0 | 0.00 | 1.12 | 0.00 | 96 | 1008.1 |
| 20260510074838 | 8 | 330 | 1.6 | 8.0 | 0.00 | 1.12 | 0.00 | 96 | 1008.0 |
| 20260510074334 | 8 | 273 | 0.0 | 6.4 | 0.00 | 1.12 | 0.00 | 96 | 1008.1 |
| 20260510073847 | 8 | 294 | 0.0 | 6.4 | 0.00 | 1.12 | 0.00 | 96 | 1008.1 |
| 20260510073334 | 8 | 355 | 0.0 | 3.2 | 0.00 | 1.12 | 0.00 | 96 | 1008.0 |
| 20260510072839 | 8 | 355 | 0.0 | 8.0 | 0.00 | 1.12 | 0.00 | 96 | 1007.9 |
| 20260510072347 | 8 | 294 | 4.8 | 8.0 | 0.00 | 1.12 | 0.00 | 96 | 1007.9 |
| 20260510071853 | 8 | 46 | 1.6 | 6.4 | 0.00 | 1.12 | 0.00 | 96 | 1007.7 |
| 20260510071347 | 8 | 220 | 0.0 | 8.0 | 0.00 | 1.12 | 0.00 | 96 | 1007.7 |
| 20260510070907 | 8 | 350 | 1.6 | 12.9 | 0.00 | 1.12 | 0.00 | 96 | 1007.8 |
| 20260510070409 | 8 | 325 | 4.8 | 12.9 | 0.00 | 1.12 | 0.00 | 96 | 1007.6 |
| 20260510065831 | 8 | 21 | 0.0 | 8.0 | 0.00 | 1.12 | 0.00 | 96 | 1007.8 |
| 20260510065357 | 8 | 300 | 0.0 | 8.0 | 0.00 | 1.12 | 0.00 | 96 | 1007.4 |
| 20260510064859 | 8 | 118 | 0.0 | 6.4 | 0.00 | 1.12 | 0.00 | 96 | 1007.1 |
| 20260510064335 | 8 | 300 | 1.6 | 8.0 | 0.00 | 1.12 | 0.00 | 96 | 1007.3 |
| 20260510063832 | 9 | 246 | 3.2 | 8.0 | 0.00 | 1.12 | 0.00 | 96 | 1007.3 |
| 20260510063356 | 9 | 302 | 1.6 | 11.3 | 0.00 | 1.12 | 0.00 | 96 | 1007.0 |
| 20260510062835 | 9 | 308 | 1.6 | 11.3 | 0.00 | 1.12 | 0.00 | 96 | 1007.0 |
| 20260510062335 | 9 | 342 | 0.0 | 4.8 | 0.00 | 1.12 | 0.00 | 96 | 1007.0 |
| 20260510061857 | 9 | 55 | 0.0 | 6.4 | 0.00 | 1.12 | 0.00 | 96 | 1007.1 |
| 20260510061355 | 9 | 54 | 0.0 | 11.3 | 0.00 | 1.12 | 0.00 | 96 | 1007.0 |
| 20260510060837 | 10 | 217 | 1.6 | 8.0 | 0.00 | 1.12 | 0.00 | 96 | 1007.1 |
| 20260510060344 | 10 | 202 | 0.0 | 4.8 | 0.00 | 1.12 | 0.00 | 96 | 1007.2 |
| 20260510055848 | 10 | 202 | 1.6 | 4.8 | 0.00 | 1.12 | 0.00 | 96 | 1007.1 |
| 20260510055333 | 10 | 276 | 0.0 | 4.8 | 0.00 | 1.12 | 0.00 | 96 | 1007.1 |
| 20260510054855 | 9 | 276 | 0.0 | 1.6 | 0.00 | 1.12 | 0.00 | 96 | 1007.1 |
| 20260510054332 | 9 | 276 | 0.0 | 3.2 | 0.00 | 1.12 | 0.00 | 96 | 1006.9 |
| 20260510053834 | 9 | 276 | 1.6 | 3.2 | 0.00 | 1.12 | 0.00 | 96 | 1006.7 |
| 20260510053344 | 9 | 276 | 0.0 | 3.2 | 0.00 | 1.12 | 0.00 | 96 | 1006.8 |
| 20260510052848 | 9 | 205 | 0.0 | 3.2 | 0.00 | 1.12 | 0.00 | 96 | 1007.1 |
| 20260510052342 | 9 | 198 | 0.0 | 3.2 | 0.00 | 1.12 | 0.00 | 96 | 1006.8 |
| 20260510051840 | 9 | 198 | 1.6 | 3.2 | 0.00 | 1.12 | 0.00 | 96 | 1006.5 |
| 20260510051340 | 9 | 198 | 0.0 | 3.2 | 0.00 | 1.12 | 0.00 | 96 | 1006.3 |
| 20260510050846 | 9 | 199 | 0.0 | 1.6 | 0.00 | 1.12 | 0.00 | 96 | 1006.3 |
| 20260510050353 | 9 | 198 | 0.0 | 1.6 | 0.00 | 1.12 | 0.00 | 96 | 1006.4 |
| 20260510045848 | 9 | 198 | 0.0 | 3.2 | 0.00 | 1.12 | 0.00 | 96 | 1006.3 |
| 20260510045343 | 8 | 198 | 0.0 | 4.8 | 0.00 | 1.12 | 0.00 | 96 | 1006.2 |
| 20260510044841 | 9 | 187 | 0.0 | 3.2 | 0.00 | 1.12 | 0.00 | 96 | 1006.3 |
| 20260510044348 | 8 | 187 | 0.0 | 1.6 | 0.00 | 1.12 | 0.00 | 96 | 1006.3 |
| 20260510043834 | 8 | 187 | 0.0 | 1.6 | 0.00 | 1.12 | 0.00 | 96 | 1006.4 |
| 20260510043412 | 8 | 187 | 0.0 | 1.6 | 0.00 | 1.12 | 0.00 | 96 | 1006.4 |
| 20260510042845 | 8 | 187 | 0.0 | 3.2 | 0.00 | 1.12 | 0.00 | 96 | 1006.2 |
| 20260510042336 | 8 | 187 | 1.6 | 3.2 | 0.00 | 1.12 | 0.00 | 96 | 1006.1 |
| 20260510041842 | 8 | 184 | 0.0 | 4.8 | 0.00 | 1.12 | 0.00 | 96 | 1005.9 |
| 20260510041346 | 8 | 184 | 1.6 | 4.8 | 0.00 | 1.12 | 0.00 | 96 | 1005.9 |
| 20260510040848 | 8 | 184 | 1.6 | 3.2 | 0.00 | 1.12 | 0.00 | 96 | 1005.9 |
| 20260510040356 | 8 | 184 | 0.0 | 3.2 | 0.00 | 1.12 | 0.00 | 96 | 1005.8 |
| 20260510035905 | 8 | 184 | 0.0 | 3.2 | 0.00 | 1.12 | 1.12 | 96 | 1005.9 |
| 20260510035400 | 8 | 184 | 0.0 | 3.2 | 0.00 | 1.12 | 1.12 | 96 | 1005.8 |
| 20260510034845 | 8 | 184 | 0.0 | 3.2 | 0.00 | 1.12 | 1.12 | 96 | 1005.9 |
| 20260510034346 | 8 | 184 | 0.0 | 3.2 | 0.00 | 1.12 | 1.12 | 96 | 1005.9 |
| 20260510033906 | 8 | 184 | 1.6 | 3.2 | 0.00 | 1.12 | 1.12 | 95 | 1005.8 |
| 20260510033347 | 8 | 184 | 0.0 | 3.2 | 0.00 | 1.12 | 1.12 | 95 | 1005.9 |
| 20260510032836 | 8 | 184 | 0.0 | 3.2 | 0.00 | 1.12 | 1.12 | 95 | 1005.8 |
| 20260510032352 | 8 | 184 | 0.0 | 3.2 | 0.00 | 1.12 | 1.12 | 95 | 1005.7 |
| 20260510031836 | 8 | 184 | 0.0 | 1.6 | 0.00 | 1.12 | 1.12 | 95 | 1005.6 |
| 20260510031344 | 8 | 184 | 0.0 | 4.8 | 0.00 | 1.12 | 1.12 | 95 | 1005.7 |
| 20260510030854 | 8 | 184 | 0.0 | 4.8 | 0.00 | 1.12 | 1.12 | 95 | 1005.7 |
| 20260510030357 | 8 | 184 | 0.0 | 6.4 | 0.00 | 1.12 | 1.12 | 95 | 1005.6 |
| 20260510025846 | 8 | 184 | 1.6 | 6.4 | 0.00 | 1.12 | 1.12 | 95 | 1005.6 |
| 20260510025342 | 8 | 201 | 0.0 | 3.2 | 0.00 | 1.12 | 1.12 | 95 | 1005.5 |
| 20260510024842 | 8 | 202 | 0.0 | 3.2 | 0.00 | 1.12 | 1.12 | 95 | 1005.5 |
| 20260510024345 | 8 | 223 | 1.6 | 3.2 | 0.00 | 1.12 | 1.12 | 95 | 1005.6 |
| 20260510023833 | 8 | 139 | 0.0 | 4.8 | 0.00 | 1.12 | 1.12 | 95 | 1005.3 |
| 20260510023332 | 8 | 139 | 1.6 | 4.8 | 0.00 | 1.12 | 1.12 | 95 | 1005.1 |
| 20260510022836 | 8 | 198 | 0.0 | 4.8 | 0.00 | 1.12 | 1.12 | 95 | 1005.0 |
| 20260510022332 | 8 | 198 | 0.0 | 6.4 | 0.00 | 1.12 | 1.12 | 95 | 1005.1 |
| 20260510021832 | 8 | 182 | 1.6 | 6.4 | 0.00 | 1.12 | 1.12 | 95 | 1005.2 |
| 20260510021332 | 8 | 184 | 0.0 | 8.0 | 0.00 | 1.12 | 1.12 | 95 | 1005.2 |
| 20260510020854 | 8 | 184 | 1.6 | 8.0 | 0.00 | 1.12 | 1.12 | 94 | 1005.1 |
| 20260510020356 | 8 | 144 | 3.2 | 11.3 | 0.00 | 1.12 | 1.12 | 94 | 1005.1 |
| 20260510015847 | 8 | 188 | 1.6 | 11.3 | 0.00 | 1.12 | 1.12 | 94 | 1005.2 |
| 20260510015343 | 8 | 231 | 0.0 | 4.8 | 0.00 | 1.12 | 1.12 | 94 | 1005.2 |
| 20260510014840 | 8 | 226 | 0.0 | 4.8 | 0.00 | 1.12 | 1.12 | 94 | 1005.3 |
| 20260510014330 | 8 | 255 | 1.6 | 4.8 | 0.00 | 1.12 | 1.12 | 94 | 1005.2 |
| 20260510013848 | 8 | 255 | 1.6 | 8.0 | 0.00 | 1.12 | 1.12 | 94 | 1005.2 |
| 20260510013332 | 9 | 175 | 0.0 | 8.0 | 0.03 | 1.12 | 1.12 | 94 | 1005.1 |
| 20260510012851 | 9 | 293 | 1.6 | 4.8 | 0.05 | 1.12 | 1.12 | 94 | 1004.9 |
| 20260510012334 | 9 | 178 | 1.6 | 6.4 | 0.08 | 1.12 | 1.12 | 94 | 1004.9 |
| 20260510011837 | 9 | 178 | 1.6 | 9.7 | 0.13 | 1.12 | 1.12 | 94 | 1004.8 |
| 20260510011340 | 9 | 124 | 1.6 | 11.3 | 0.18 | 1.12 | 1.12 | 94 | 1004.6 |
| 20260510010907 | 9 | 190 | 6.4 | 14.5 | 0.23 | 1.12 | 1.12 | 94 | 1004.4 |
| 20260510010409 | 9 | 227 | 3.2 | 14.5 | 0.25 | 1.12 | 1.12 | 94 | 1004.5 |
| 20260510005852 | 9 | 66 | 6.4 | 14.5 | 0.36 | 1.12 | 1.12 | 94 | 1004.4 |
| 20260510005333 | 9 | 223 | 4.8 | 22.5 | 0.41 | 1.12 | 1.12 | 94 | 1004.5 |
| 20260510004841 | 9 | 180 | 4.8 | 22.5 | 0.51 | 1.12 | 1.12 | 94 | 1004.4 |
| 20260510004347 | 9 | 200 | 6.4 | 11.3 | 0.58 | 1.12 | 1.12 | 94 | 1004.3 |
| 20260510003839 | 9 | 164 | 4.8 | 8.0 | 0.61 | 1.12 | 1.12 | 94 | 1004.4 |
| 20260510003334 | 9 | 171 | 3.2 | 8.0 | 0.64 | 1.09 | 1.09 | 93 | 1004.6 |
| 20260510002853 | 9 | 161 | 3.2 | 9.7 | 0.66 | 1.07 | 1.07 | 93 | 1005.1 |
| 20260510002401 | 9 | 148 | 3.2 | 16.1 | 0.71 | 1.04 | 1.04 | 93 | 1004.9 |
| 20260510001834 | 9 | 242 | 4.8 | 24.1 | 0.76 | 0.99 | 0.99 | 93 | 1005.4 |
| 20260510001334 | 9 | 158 | 4.8 | 24.1 | 0.86 | 0.91 | 0.91 | 93 | 1005.7 |
| 20260510000852 | 9 | 197 | 6.4 | 17.7 | 0.89 | 0.89 | 0.89 | 93 | 1005.7 |
| 20260510000353 | 9 | 129 | 3.2 | 16.1 | 0.86 | 0.86 | 0.86 | 92 | 1005.6 |
| 20260509235830 | 9 | 209 | 4.8 | 9.7 | 0.76 | 0.76 | 0.76 | 92 | 1005.7 |
| 20260509235351 | 9 | 154 | 3.2 | 9.7 | 0.71 | 0.71 | 0.71 | 92 | 1005.6 |
| 20260509234846 | 9 | 180 | 3.2 | 11.3 | 0.61 | 0.61 | 0.61 | 91 | 1005.5 |
| 20260509234344 | 9 | 250 | 3.2 | 11.3 | 0.53 | 0.53 | 0.53 | 90 | 1005.3 |
| 20260509233842 | 9 | 259 | 4.8 | 12.9 | 0.51 | 0.51 | 0.51 | 89 | 1005.0 |
| 20260509233358 | 10 | 11 | 4.8 | 19.3 | 0.46 | 0.46 | 0.46 | 88 | 1004.8 |
| 20260509232918 | 10 | 148 | 4.8 | 19.3 | 0.38 | 0.38 | 0.38 | 86 | 1004.4 |
| 20260509232340 | 11 | 233 | 9.7 | 19.3 | 0.30 | 0.30 | 0.30 | 83 | 1004.5 |
| 20260509231836 | 12 | 91 | 8.0 | 22.5 | 0.23 | 0.23 | 0.23 | 78 | 1004.7 |
| 20260509231340 | 14 | 84 | 6.4 | 38.6 | 0.00 | 0.00 | 0.00 | 70 | 1004.6 |
| 20260509230841 | 15 | 227 | 12.9 | 38.6 | 0.00 | 0.00 | 0.00 | 67 | 1003.7 |
| 20260509230332 | 15 | 236 | 6.4 | 17.7 | 0.00 | 0.00 | 0.00 | 67 | 1002.6 |
| 20260509225842 | 15 | 249 | 6.4 | 16.1 | 0.00 | 0.00 | 0.00 | 66 | 1002.6 |
| 20260509225345 | 15 | 254 | 4.8 | 19.3 | 0.00 | 0.00 | 0.00 | 65 | 1002.8 |
| 20260509224831 | 16 | 249 | 6.4 | 19.3 | 0.00 | 0.00 | 0.00 | 65 | 1003.0 |
| 20260509224359 | 16 | 238 | 6.4 | 14.5 | 0.00 | 0.00 | 0.00 | 65 | 1002.8 |
| 20260509223838 | 16 | 49 | 4.8 | 11.3 | 0.00 | 0.00 | 0.00 | 66 | 1002.8 |
| 20260509223339 | 16 | 252 | 4.8 | 14.5 | 0.00 | 0.00 | 0.00 | 65 | 1002.7 |
| 20260509222845 | 16 | 251 | 8.0 | 14.5 | 0.00 | 0.00 | 0.00 | 65 | 1002.4 |
| 20260509222409 | 16 | 234 | 3.2 | 12.9 | 0.00 | 0.00 | 0.00 | 65 | 1002.6 |
| 20260509221842 | 16 | 182 | 3.2 | 14.5 | 0.00 | 0.00 | 0.00 | 64 | 1002.6 |
| 20260509221402 | 16 | 206 | 3.2 | 14.5 | 0.00 | 0.00 | 0.00 | 64 | 1002.6 |
| 20260509220836 | 16 | 207 | 3.2 | 16.1 | 0.00 | 0.00 | 0.00 | 63 | 1002.5 |
| 20260509220343 | 16 | 88 | 6.4 | 17.7 | 0.00 | 0.00 | 0.00 | 62 | 1002.6 |
| 20260509215832 | 16 | 210 | 6.4 | 17.7 | 0.00 | 0.00 | 0.00 | 62 | 1002.7 |
| 20260509215344 | 16 | 244 | 6.4 | 16.1 | 0.00 | 0.00 | 0.00 | 62 | 1002.8 |
| 20260509214853 | 16 | 73 | 4.8 | 8.0 | 0.00 | 0.00 | 0.00 | 64 | 1002.7 |
| 20260509214347 | 16 | 205 | 1.6 | 17.7 | 0.00 | 0.00 | 0.00 | 64 | 1002.7 |
| 20260509213842 | 16 | 172 | 6.4 | 17.7 | 0.00 | 0.00 | 0.00 | 63 | 1002.8 |
| 20260509213347 | 16 | 234 | 8.0 | 16.1 | 0.00 | 0.00 | 0.00 | 60 | 1002.9 |
| 20260509212844 | 16 | 225 | 8.0 | 16.1 | 0.00 | 0.00 | 0.00 | 59 | 1002.9 |
| 20260509212406 | 17 | 242 | 6.4 | 16.1 | 0.00 | 0.00 | 0.00 | 61 | 1003.0 |
| 20260509211846 | 17 | 221 | 6.4 | 16.1 | 0.00 | 0.00 | 0.00 | 63 | 1002.8 |
| 20260509211340 | 17 | 283 | 4.8 | 17.7 | 0.00 | 0.00 | 0.00 | 62 | 1002.8 |
| 20260509210849 | 17 | 120 | 4.8 | 17.7 | 0.00 | 0.00 | 0.00 | 60 | 1002.8 |
| 20260509210357 | 17 | 97 | 6.4 | 17.7 | 0.00 | 0.00 | 0.00 | 62 | 1002.7 |
| 20260509205855 | 17 | 125 | 6.4 | 19.3 | 0.00 | 0.00 | 0.00 | 60 | 1002.7 |
| 20260509205336 | 17 | 219 | 8.0 | 20.9 | 0.00 | 0.00 | 0.00 | 62 | 1002.8 |
| 20260509204839 | 16 | 194 | 4.8 | 14.5 | 0.00 | 0.00 | 0.00 | 63 | 1002.8 |
| 20260509204359 | 16 | 221 | 4.8 | 11.3 | 0.00 | 0.00 | 0.00 | 60 | 1002.9 |
| 20260509203901 | 16 | 192 | 3.2 | 12.9 | 0.00 | 0.00 | 0.00 | 60 | 1003.0 |
| 20260509203332 | 17 | 258 | 1.6 | 14.5 | 0.00 | 0.00 | 0.00 | 61 | 1003.1 |
| 20260509202857 | 16 | 336 | 3.2 | 11.3 | 0.00 | 0.00 | 0.00 | 62 | 1003.1 |
| 20260509202337 | 16 | 286 | 4.8 | 16.1 | 0.00 | 0.00 | 0.00 | 62 | 1003.2 |
| 20260509201901 | 16 | 270 | 6.4 | 16.1 | 0.00 | 0.00 | 0.00 | 61 | 1003.2 |
| 20260509201343 | 16 | 156 | 4.8 | 14.5 | 0.00 | 0.00 | 0.00 | 61 | 1003.2 |
| 20260509200843 | 17 | 223 | 4.8 | 22.5 | 0.00 | 0.00 | 0.00 | 60 | 1003.3 |
| 20260509200350 | 18 | 251 | 8.0 | 22.5 | 0.00 | 0.00 | 0.00 | 59 | 1003.3 |
| 20260509195840 | 18 | 267 | 11.3 | 19.3 | 0.00 | 0.00 | 0.00 | 60 | 1003.3 |
| 20260509195340 | 17 | 231 | 8.0 | 20.9 | 0.00 | 0.00 | 0.00 | 61 | 1003.2 |
| 20260509194859 | 17 | 304 | 4.8 | 20.9 | 0.00 | 0.00 | 0.00 | 58 | 1003.2 |
| 20260509194341 | 17 | 130 | 8.0 | 22.5 | 0.00 | 0.00 | 0.00 | 60 | 1003.4 |
| 20260509193830 | 17 | 161 | 6.4 | 16.1 | 0.00 | 0.00 | 0.00 | 60 | 1003.6 |
| 20260509193411 | 17 | 198 | 3.2 | 14.5 | 0.00 | 0.00 | 0.00 | 64 | 1003.7 |
| 20260509192832 | 17 | 148 | 6.4 | 19.3 | 0.00 | 0.00 | 0.00 | 60 | 1003.7 |
| 20260509192354 | 18 | 238 | 6.4 | 12.9 | 0.00 | 0.00 | 0.00 | 61 | 1004.0 |
| 20260509191842 | 17 | 234 | 3.2 | 22.5 | 0.00 | 0.00 | 0.00 | 65 | 1004.1 |
| 20260509191351 | 17 | 317 | 9.7 | 22.5 | 0.00 | 0.00 | 0.00 | 64 | 1004.0 |
| 20260509190847 | 16 | 116 | 6.4 | 17.7 | 0.00 | 0.00 | 0.00 | 62 | 1004.1 |
| 20260509190330 | 16 | 140 | 6.4 | 17.7 | 0.00 | 0.00 | 0.00 | 62 | 1004.1 |
| 20260509185856 | 17 | 149 | 4.8 | 16.1 | 0.00 | 0.00 | 0.00 | 59 | 1004.1 |
| 20260509185354 | 17 | 262 | 6.4 | 19.3 | 0.00 | 0.00 | 0.00 | 61 | 1004.0 |
| 20260509184840 | 17 | 180 | 8.0 | 19.3 | 0.00 | 0.00 | 0.00 | 63 | 1003.9 |
| 20260509184331 | 17 | 191 | 6.4 | 17.7 | 0.00 | 0.00 | 0.00 | 59 | 1003.9 |
| 20260509183834 | 17 | 274 | 9.7 | 17.7 | 0.00 | 0.00 | 0.00 | 59 | 1004.0 |
| 20260509183351 | 17 | 205 | 9.7 | 16.1 | 0.00 | 0.00 | 0.00 | 64 | 1003.9 |
| 20260509182849 | 17 | 65 | 4.8 | 22.5 | 0.00 | 0.00 | 0.00 | 59 | 1004.0 |
| 20260509182346 | 17 | 125 | 6.4 | 22.5 | 0.00 | 0.00 | 0.00 | 62 | 1004.0 |
| 20260509181830 | 17 | 251 | 6.4 | 16.1 | 0.00 | 0.00 | 0.00 | 60 | 1004.0 |
| 20260509181332 | 16 | 79 | 3.2 | 16.1 | 0.00 | 0.00 | 0.00 | 67 | 1004.0 |
| 20260509180845 | 16 | 200 | 4.8 | 16.1 | 0.00 | 0.00 | 0.00 | 66 | 1004.1 |
| 20260509180343 | 16 | 224 | 6.4 | 14.5 | 0.00 | 0.00 | 0.00 | 65 | 1004.1 |
| 20260509175844 | 16 | 212 | 4.8 | 16.1 | 0.00 | 0.00 | 0.00 | 63 | 1004.2 |
| 20260509175340 | 17 | 221 | 8.0 | 16.1 | 0.00 | 0.00 | 0.00 | 60 | 1004.2 |
| 20260509174836 | 17 | 218 | 8.0 | 22.5 | 0.00 | 0.00 | 0.00 | 62 | 1004.1 |
| 20260509174334 | 17 | 179 | 6.4 | 16.1 | 0.00 | 0.00 | 0.00 | 68 | 1004.3 |
| 20260509173854 | 16 | 298 | 6.4 | 17.7 | 0.00 | 0.00 | 0.00 | 70 | 1004.4 |
| 20260509173346 | 15 | 231 | 6.4 | 17.7 | 0.00 | 0.00 | 0.00 | 69 | 1004.4 |
| 20260509172907 | 15 | 237 | 6.4 | 22.5 | 0.00 | 0.00 | 0.00 | 70 | 1004.6 |
| 20260509172352 | 16 | 260 | 9.7 | 22.5 | 0.00 | 0.00 | 0.00 | 67 | 1004.6 |
| 20260509171832 | 16 | 274 | 6.4 | 17.7 | 0.00 | 0.00 | 0.00 | 69 | 1004.5 |
| 20260509171332 | 16 | 235 | 4.8 | 16.1 | 0.00 | 0.00 | 0.00 | 66 | 1004.4 |